EHI
11 10 8 7 6 6 6 6 6 5 3 3 5 7 8 7 4 4 4 2 0 0 0 0 0 0 0 0 0 0 0 0 0 0 0 0 0 0
9 9 8 8 8 8 7 7 7 6 3 3 5 7 8 6 3 3 4 1 0 0 0 0 0 0 0 0 0 0 0 0 0 0 0 0 0 0
7 8 9 11 12 11 9 8 9 7 5 4 5 6 7 7 5 3 2 1 0 0 0 0 0 0 0 0 0 0 0 0 0 0 0 0 0 0
7 8 10 12 13 13 10 10 9 8 6 5 5 6 8 9 7 3 1 0 0 0 0 0 0 0 0 0 0 0 0 0 0 0 0 0 0 0
8 9 10 10 10 10 10 10 9 8 8 6 5 6 8 8 5 2 0 0 0 0 0 0 0 0 0 0 0 0 0 0 0 0 0 0 0 0
10 9 9 8 8 8 8 8 8 8 8 7 5 6 8 7 5 3 1 0 0 0 0 0 0 0 0 0 0 0 0 0 0 0 0 0 0 0
13 11 7 6 6 6 6 6 6 7 8 7 5 5 6 7 6 4 2 1 0 0 0 0 0 0 0 0 0 0 0 0 0 0 0 0 0 0
16 13 9 6 6 6 5 4 4 4 6 5 4 4 5 6 6 4 2 1 1 0 0 0 0 0 0 0 0 0 0 0 0 0 0 0 0 0
15 14 11 8 7 6 5 4 3 4 4 3 3 3 4 7 7 4 2 1 0 0 0 0 0 0 0 0 0 0 0 0 0 0 0 0 0 0
13 13 12 10 8 7 6 5 5 4 3 1 1 2 3 5 6 5 3 1 0 0 0 0 0 0 0 0 0 0 0 0 0 0 0 0 0 0
12 11 12 11 9 6 6 6 5 4 3 1 0 0 1 2 4 4 2 1 0 0 0 0 0 0 0 0 0 0 0 0 0 0 0 0 0 0
13 11 11 10 8 5 4 6 5 4 4 3 1 1 1 1 1 1 1 0 0 0 0 0 0 0 0 0 0 0 0 0 0 0 0 0 0 0
13 12 9 6 4 2 3 4 5 4 5 5 3 2 2 2 2 1 0 0 0 0 0 0 0 0 0 0 0 0 0 0 0 0 0 0 0 0
12 10 6 2 1 0 1 1 2 2 4 5 3 1 1 2 2 2 1 1 0 0 0 0 0 0 0 0 0 0 0 0 0 0 0 0 0 0
8 5 2 0 0 0 0 0 0 0 2 3 2 1 1 2 3 4 3 2 1 0 0 0 0 0 0 0 0 0 0 0 0 0 1 1 0 0
2 1 0 0 0 0 0 0 0 0 0 1 1 1 1 2 5 6 5 3 1 0 0 0 0 0 0 0 0 0 0 0 0 0 1 1 1 1
0 0 0 0 0 0 0 0 1 1 1 1 2 1 0 1 3 4 4 3 1 0 0 0 0 0 0 0 0 0 0 0 0 0 1 2 2 2
1 1 0 0 0 0 0 1 3 4 3 1 1 1 0 0 1 1 1 2 1 0 0 0 0 0 0 0 0 0 1 1 0 0 1 2 2 2
0 0 0 0 0 0 0 0 2 4 4 1 0 0 0 0 0 0 0 1 1 0 0 0 0 0 0 0 0 0 1 1 0 0 1 1 1 1
0 0 0 0 0 0 0 0 0 2 2 1 0 0 0 0 0 0 0 0 0 0 0 0 0 0 0 0 0 0 1 1 0 0 0 0 0 0
0 0 0 0 0 0 0 0 0 0 1 1 0 0 0 0 0 0 0 0 0 0 0 0 0 0 0 0 0 0 0 0 1 1 0 0 0 0
0 0 0 0 0 0 0 0 0 0 0 0 0 0 0 0 0 0 0 0 0 0 0 0 0 1 0 0 0 0 1 1 1 1 0 0 0 0
0 0 0 0 1 1 1 0 0 0 0 0 0 0 0 0 0 0 0 0 0 0 0 0 0 1 0 0 0 0 1 2 2 1 0 0 0 0
Wind_Speed
1 1 1 1 1 1 1 1 1 1 2 1 1 2 2 3 6 5 5 10 11 10 9 8 8 7 7 6 6 5 5 5 5 6 6 6 6 6
1 1 2 1 1 1 1 1 1 1 1 1 1 1 1 1 5 3 3 9 11 11 10 10 9 8 7 7 7 7 6 6 6 6 6 6 7 7
1 1 1 1 1 2 1 1 1 0 1 1 0 1 1 1 2 3 3 5 6 11 12 11 11 10 9 9 9 8 8 7 7 7 7 7 7 7
3 2 2 1 2 1 1 1 1 1 1 2 1 1 2 2 3 4 4 4 4 10 13 13 12 11 11 10 10 9 9 9 8 8 8 7 7 7
3 3 2 2 2 1 2 1 2 1 1 1 2 1 1 1 2 3 3 2 4 7 12 13 13 12 12 11 11 10 10 10 9 9 9 8 8 7
3 3 2 2 2 2 2 2 2 2 1 2 2 2 2 1 1 2 2 2 3 3 5 8 11 13 13 12 12 11 11 10 10 10 10 9 9 8
3 3 2 2 2 2 2 1 2 2 1 2 2 2 1 1 1 2 3 2 3 2 1 3 4 5 8 11 12 13 12 12 12 11 11 11 10 10
3 2 3 3 3 3 3 3 3 3 2 2 2 2 2 2 2 2 2 2 2 2 2 3 3 4 5 6 11 14 14 14 13 12 12 12 11 11
3 3 4 3 3 3 3 4 4 5 6 4 3 4 3 2 2 3 3 3 3 2 2 4 3 4 5 5 10 13 14 14 13 13 12 12 12 12
3 4 3 2 3 2 3 3 4 4 5 5 4 4 4 2 3 3 3 3 3 3 3 3 3 4 4 4 9 12 13 13 13 13 12 12 12 12
3 3 3 3 3 3 2 3 3 4 5 4 4 5 5 5 3 2 2 2 3 3 2 3 3 3 3 3 5 11 13 13 13 13 12 12 12 10
3 3 4 4 3 4 2 3 4 3 3 4 3 4 5 5 6 5 4 3 3 3 2 2 2 2 2 2 2 4 6 10 12 12 12 12 11 7
2 2 2 4 5 5 4 4 5 4 3 4 4 4 3 3 4 4 4 4 4 3 2 1 2 2 2 2 2 3 4 3 5 7 10 11 11 10
3 2 2 5 6 6 5 5 5 3 3 3 3 3 3 3 3 4 5 5 4 5 3 2 2 2 2 3 3 2 2 3 3 4 4 7 9 12
2 1 2 5 5 5 6 6 4 3 3 3 3 3 3 3 3 3 3 4 5 5 5 4 3 3 3 4 4 3 3 3 3 3 3 4 5 5
2 2 3 4 4 4 3 3 3 3 3 3 3 3 2 2 2 2 2 2 3 3 4 4 4 4 4 4 4 4 3 3 3 3 3 3 3 4
2 2 2 1 2 3 3 3 4 4 4 4 3 3 2 2 2 2 2 2 3 3 3 3 4 4 4 4 4 4 4 3 3 3 3 3 4 4
2 2 2 2 2 3 3 3 3 3 3 3 3 3 3 2 2 2 1 2 3 3 3 2 2 2 3 4 5 5 4 4 3 3 3 3 4 4
3 3 2 2 2 2 2 2 2 2 2 2 2 2 2 2 2 2 2 3 3 3 3 2 2 2 3 5 5 6 5 4 3 3 4 4 5 4
3 3 2 2 2 2 2 2 2 1 1 2 2 2 2 2 2 3 3 3 3 3 3 3 3 3 4 5 5 4 7 5 4 4 4 4 4 4
3 2 3 3 3 2 2 2 2 2 2 2 2 2 2 2 2 3 3 4 4 4 4 4 4 5 3 3 4 4 3 6 6 4 4 4 4 3
2 2 2 2 2 2 2 2 2 2 2 2 2 2 2 2 3 4 3 3 3 4 4 3 3 3 3 4 5 5 5 3 5 7 7 5 3 4
2 2 2 2 2 2 2 2 2 2 1 1 2 2 2 2 3 3 3 4 3 4 4 3 3 3 3 4 5 5 6 4 3 3 4 6 8 10
Wind_Direction
236 241 255 261 268 276 255 181 206 239 223 209 182 169 166 156 161 185 169 184 187 189 192 193 196 200 204 204 203 205 205 208 210 215 218 221 222 222
219 217 247 276 293 280 279 267 249 221 234 213 214 156 169 171 177 196 177 180 195 194 196 200 201 204 206 207 207 210 210 213 215 219 223 225 225 224
230 212 235 243 280 270 274 270 270 311 257 293 303 164 225 211 196 209 194 190 197 199 200 202 204 206 208 210 212 212 212 214 217 220 222 225 227 226
206 212 224 239 271 288 283 278 273 230 204 270 297 265 253 235 214 216 221 212 195 197 200 203 206 208 211 213 213 213 214 217 219 222 223 226 231 231
212 214 208 213 243 272 284 278 272 266 205 249 259 255 249 237 251 244 238 227 231 193 200 207 211 212 213 214 213 215 216 217 219 222 225 227 230 232
213 214 211 201 210 238 253 261 281 275 234 234 246 243 228 229 231 251 253 240 256 224 203 207 212 215 218 215 214 216 217 219 220 222 224 226 228 229
216 214 214 191 187 221 249 256 265 268 263 251 245 250 242 218 248 266 268 253 252 246 197 216 207 211 217 219 220 219 217 218 220 222 222 224 226 228
218 218 222 193 198 212 238 252 247 239 253 261 257 255 257 241 248 258 265 269 261 237 214 242 217 215 220 210 210 212 214 216 218 220 221 223 225 228
222 223 237 213 200 215 218 226 237 235 225 231 250 260 261 242 237 255 262 268 263 260 240 250 231 228 230 224 203 202 207 211 215 217 220 222 225 229
234 231 226 222 224 210 236 243 245 247 234 230 238 252 264 255 238 238 255 269 271 253 213 243 251 244 243 216 200 199 204 210 215 218 219 222 226 229
231 230 222 217 210 191 213 244 256 260 264 264 247 249 251 249 238 241 247 257 271 264 229 227 249 255 247 226 205 200 205 211 216 220 221 223 225 227
225 222 215 221 193 188 214 239 255 268 279 280 267 251 237 232 224 219 227 242 258 261 237 226 247 250 263 243 218 199 214 223 225 226 224 224 219 214
238 230 207 190 196 210 220 237 248 262 267 260 256 245 226 218 212 216 222 232 247 258 258 249 266 264 257 270 253 222 211 215 216 227 226 223 213 205
252 246 192 192 205 220 230 240 246 255 258 257 254 242 230 226 224 218 220 227 237 248 254 248 264 265 278 278 269 245 232 226 214 213 212 210 216 219
281 302 214 208 214 223 228 228 227 231 246 255 257 259 251 242 232 218 217 228 242 252 249 230 233 244 246 260 263 260 255 247 225 213 206 195 197 202
264 265 220 212 230 238 228 221 219 230 240 253 256 256 258 252 238 226 225 224 244 259 245 232 231 234 248 259 259 259 243 232 235 235 218 214 210 209
235 237 221 216 224 233 230 223 221 221 232 245 253 261 255 251 241 230 227 233 238 253 263 249 232 226 236 250 261 257 248 244 235 230 227 232 229 223
229 242 240 236 234 239 240 232 224 223 231 240 239 244 250 253 255 250 242 238 243 254 257 255 242 251 262 257 239 255 253 247 245 235 229 232 242 230
215 239 241 244 251 260 263 258 246 235 239 244 251 247 246 248 250 247 246 250 251 254 260 254 236 237 264 273 262 230 241 250 245 243 238 235 244 241
230 241 246 247 246 243 253 261 262 238 226 242 249 256 260 255 260 258 251 249 256 258 262 260 240 230 245 264 274 267 234 237 241 244 247 246 245 248
236 246 247 245 243 243 246 246 247 245 236 241 247 254 260 258 263 269 264 261 256 252 254 256 254 247 249 257 269 270 255 229 232 233 239 251 256 248
250 260 264 254 245 248 241 239 236 237 244 243 255 262 271 272 269 268 272 271 260 257 261 260 255 253 253 258 267 272 272 259 242 242 246 235 232 241
260 263 270 275 262 261 263 257 260 262 255 253 248 254 264 271 273 270 273 276 273 264 264 269 268 261 256 252 263 270 273 270 254 240 247 248 245 250